Location: Unspecified
(0.0000°N, 0.0000°E)
Time: 09:02:34
(UTC+00:00)

PAYLOAD C - Visible Passes

Search period start: 09 June 2023 00:00
Search period end: 19 June 2023 00:00
Orbit: 809 x 824 km, 98.7° (Epoch: 08 June)

Date Brightness Start Highest point End Pass type
(mag) Time Alt. Az. Time Alt. Az. Time Alt. Az.
09 Jun ? 04:48:44 10° ENE 04:51:35 15° ESE 04:54:25 10° SE visible
09 Jun ? 19:08:22 10° SW 19:10:17 12° WSW 19:12:12 10° W visible
10 Jun ? 18:44:24 10° SSW 18:48:29 22° WSW 18:52:33 10° NW visible
11 Jun ? 18:21:40 10° S 18:26:40 40° WSW 18:31:37 10° NW visible
12 Jun ? 05:20:54 10° NE 05:25:46 37° ESE 05:30:39 10° S visible
13 Jun ? 05:00:03 10° NE 05:03:56 21° ESE 05:07:50 10° SSE visible
14 Jun ? 04:40:50 10° E 04:42:08 11° ESE 04:43:26 10° ESE visible
14 Jun ? 18:57:43 10° SW 19:00:51 16° WSW 19:03:59 10° WNW visible
15 Jun ? 18:34:29 10° SSW 18:39:02 29° WSW 18:43:34 10° NW visible
17 Jun ? 05:11:46 10° NE 05:16:18 29° ESE 05:20:51 10° SSE visible
18 Jun ? 04:51:20 10° ENE 04:54:29 16° ESE 04:57:39 10° SE visible
18 Jun ? 19:12:00 10° WSW 19:13:12 11° WSW 19:14:24 10° W visible
